Location: Berg
(47.2344°N, 9.5296°E)
Time: 23:50:58
(UTC+00:00)

Nadezhda 4 Rocket - Pass Details

Date: 18 May 2021
Orbit: 949 x 993 km, 82.9° (Epoch: 21 June)

Event Time Altitude Azimuth Distance (km) Brightness Sun altitude
Rises 03:01:56 0° 145° (SE) 3,692 7.0 -6.5°
Reaches altitude 10° 03:04:58 10° 132° (SE) 2,744 6.5 -6.1°
Maximum altitude 03:09:43 23° 82° (E) 1,957 6.5 -5.4°
Drops below altitude 10° 03:14:27 10° 33° (NNE) 2,739 7.7 -4.8°
Sets 03:17:28 0° 20° (NNE) 3,684 8.0 -4.4°
